Location: Holbach
(51.5399°N, 10.6036°E)
Time: 18:27:16
(UTC+00:00)

NOSS 2-2 (E) - Pass Details

Date: 18 September 2020
Orbit: 469 x 1737 km, 63.3° (Epoch: 19 October)

Event Time Altitude Azimuth Distance (km) Brightness Sun altitude
Rises 19:12:51 0° 225° (SW) 2,502 6.9 -17.1°
Reaches altitude 10° 19:14:51 10° 226° (SW) 1,648 6.0 -17.4°
Maximum altitude 19:18:24 85° 313° (NW) 525 3.2 -17.9°
Drops below altitude 10° 19:22:38 10° 45° (NE) 1,951 5.9 -18.5°
Sets 19:25:10 0° 46° (NE) 3,019 6.9 -18.8°
